TimeEST,TemperatureF,Dew PointF,Humidity,Sea Level PressureIn,VisibilityMPH,Wind Direction,Wind SpeedMPH,Gust SpeedMPH,PrecipitationIn,Events,Conditions,WindDirDegrees,DateUTC
12:53 AM,75.0,71.1,87,30.05,10.0,East,9.2,-,N/A,,Partly Cloudy,100,2013-11-17 05:53:00
1:53 AM,75.0,70.0,84,30.04,10.0,ESE,10.4,-,N/A,,Clear,110,2013-11-17 06:53:00
2:53 AM,75.0,70.0,84,30.04,10.0,East,9.2,-,N/A,,Clear,100,2013-11-17 07:53:00
3:53 AM,75.0,69.1,82,30.03,10.0,East,6.9,-,N/A,,Clear,100,2013-11-17 08:53:00
4:53 AM,73.9,69.1,85,30.02,10.0,ESE,6.9,-,N/A,,Clear,110,2013-11-17 09:53:00
5:53 AM,73.9,69.1,85,30.03,10.0,East,6.9,-,N/A,,Clear,100,2013-11-17 10:53:00
6:53 AM,73.0,69.1,87,30.04,10.0,ESE,5.8,-,N/A,,Clear,110,2013-11-17 11:53:00
7:53 AM,78.1,70.0,76,30.06,10.0,ESE,6.9,-,N/A,,Clear,110,2013-11-17 12:53:00
8:53 AM,81.0,69.1,67,30.07,10.0,ESE,12.7,-,N/A,,Clear,110,2013-11-17 13:53:00
9:53 AM,82.9,70.0,65,30.08,10.0,ESE,12.7,20.7,N/A,,Partly Cloudy,120,2013-11-17 14:53:00
10:53 AM,82.9,69.1,63,30.08,10.0,ESE,18.4,24.2,N/A,,Scattered Clouds,110,2013-11-17 15:53:00
11:53 AM,82.9,69.1,63,30.06,10.0,ESE,15.0,21.9,N/A,,Scattered Clouds,120,2013-11-17 16:53:00
12:53 PM,82.0,70.0,67,30.04,10.0,SE,10.4,-,N/A,,Scattered Clouds,130,2013-11-17 17:53:00
1:53 PM,82.9,69.1,63,30.02,10.0,ESE,13.8,-,N/A,,Mostly Cloudy,120,2013-11-17 18:53:00
2:53 PM,84.0,69.1,61,30.01,10.0,SE,10.4,-,0.00,,Scattered Clouds,130,2013-11-17 19:53:00
3:53 PM,82.0,68.0,62,30.01,10.0,ESE,10.4,-,0.00,,Partly Cloudy,120,2013-11-17 20:53:00
4:53 PM,80.1,68.0,67,30.01,10.0,ESE,10.4,-,0.00,,Clear,110,2013-11-17 21:53:00
5:53 PM,77.0,69.1,76,30.02,10.0,East,8.1,-,0.00,,Clear,90,2013-11-17 22:53:00
6:53 PM,73.9,69.1,85,30.03,10.0,East,5.8,-,N/A,,Clear,90,2013-11-17 23:53:00
7:53 PM,73.0,69.1,87,30.04,10.0,East,5.8,-,N/A,,Clear,90,2013-11-18 00:53:00
8:53 PM,73.9,70.0,87,30.04,10.0,East,4.6,-,0.00,,Clear,90,2013-11-18 01:53:00
9:53 PM,75.0,71.1,87,30.05,10.0,NE,3.5,-,0.00,Rain,Light Rain,50,2013-11-18 02:53:00
10:53 PM,73.9,71.1,91,30.05,10.0,Calm,Calm,-,0.00,,Partly Cloudy,0,2013-11-18 03:53:00
11:53 PM,72.0,70.0,93,30.04,10.0,Calm,Calm,-,N/A,,Partly Cloudy,0,2013-11-18 04:53:00